KOYOH

导读

KOYOH是日本于2023年12月1日08:00发射的人造卫星, NORAD编号为58464,标识为2023-185C,轨道倾角约95.2度,目前可正常追踪运行。作为日本当年航天发射任务中的一颗卫星,它入轨后已稳定运行超两年,延续了日本在低轨卫星领域的部署节奏,相关数据纳入全球卫星监测体系。

Basic Information
目录编号:
58464
目录名称:
KOYOH
国际标识:
2023-185C
轨道中心:
EARTH
卫星名称:
KOYOH
卫星全名:
--
卫星状态:
在轨 (已飞行1009 天)
发射日期:
2023-12-01 UTC
国别 :
日本 (JP)
星等 :
--
Orbit Information
数据来源 国际轨道数据
星历时间: 2026-09-05T22:50:36+0800
7小时前
查看轨道信息
半长轴: 6887.109km
偏心率: 0.0007532
轨道倾角: 97.525°
近地点辐角 38.652°
升交点赤经 320.512°
平近点角 321.525°
近地点: 503.784km
远地点: 514.16km
周期: 94.801分钟
每日圈数: 15.189635
Detailed Information
使用方式:
暂无
2D Orbit Map
3D Orbit Map
Orbit Altitude Analysis Chart
Orbit Inclination Analysis Chart
Orbit Comprehensive Analysis Chart
View Comprehensive Chart
Conjunction Data List
Event ID Objects TCA Miss Dist (km) Collision Risk Probability Collision Risk Index (CRI) Action
CDM_260906-172205-846406-846225
KOYOH (58464)
2026-09-06T
17:22:32+0000
2.104 km
极远距离
2.289008E-6 低风险 0.42